This demonstration page uses our WeatherBlox Daily Observations layout. Learn more.

Left ArrowRight Arrow

Hourly Observations for January 8, 2018

Temp ( °F °C ) Dew Point ( °F °C ) Humidity (%) Winds ( mph kmh ) Pressure ( in mb ) Visibility ( mi km ) Precip ( " mm )
12:56 am 00:56 Clear 30 -1.1 28 -2.2 92 92 WNW 12 19 30.12 1020 10 16 0.00 0.00
2:56 am 02:56 Clear 30 -1.1 28 -2.2 92 92 W 7 11 30.12 1020 10 16 0.00 0.00
3:56 am 03:56 Clear 27 -2.8 25 -3.9 92 92 NW 5 7 30.12 1020 10 16 0.00 0.00
4:56 am 04:56 Clear 24 -4.4 22 -5.6 91 91 WSW 6 9 30.14 1021 10 16 0.00 0.00
5:56 am 05:56 Clear 25 -3.9 24 -4.4 96 96 W 6 9 30.15 1021 10 16 0.00 0.00
6:56 am 06:56 Clear 25 -3.9 24 -4.4 96 96 WSW 7 11 30.18 1022 10 16 0.00 0.00
7:56 am 07:56 Clear 25 -3.9 23 -5 92 92 W 6 9 30.17 1022 10 16 0.00 0.00
8:56 am 08:56 Sunny 30 -1.1 26 -3.3 85 85 SW 5 7 30.17 1022 10 16 0.00 0.00
9:56 am 09:56 Sunny 33 0.6 28 -2.2 82 82 SW 7 11 30.16 1021 10 16 0.00 0.00
10:56 am 10:56 Sunny 36 2.2 30 -1.1 79 79 SSW 7 11 30.15 1021 10 16 0.00 0.00
11:56 am 11:56 Sunny 41 5 32 0 70 70 SW 8 13 30.13 1020 10 16 0.00 0.00
12:56 pm 12:56 Sunny 46 7.8 34 1.1 63 63 SSW 10 17 30.10 1019 10 16 0.00 0.00
1:56 pm 13:56 Sunny 50 10 33 0.6 52 52 SSW 14 22 30.06 1018 10 16 0.00 0.00
2:56 pm 14:56 Sunny 50 10 31 -0.6 48 48 SSW 14 22 30.04 1017 10 16 0.00 0.00
3:56 pm 15:56 Sunny 49 9.4 32 0 52 52 S 9 15 30.03 1017 10 16 0.00 0.00
4:56 pm 16:56 Sunny 43 6.1 31 -0.6 63 63 S 10 17 30.03 1017 10 16 0.00 0.00
5:56 pm 17:56 Clear 41 5 30 -1.1 65 65 S 10 17 30.04 1017 10 16 0.00 0.00
6:56 pm 18:56 Clear 42 5.6 29 -1.7 60 60 S 10 17 30.03 1017 10 16 0.00 0.00
7:56 pm 19:56 Clear 42 5.6 29 -1.7 60 60 S 12 19 30.03 1017 10 16 0.00 0.00
8:56 pm 20:56 Clear 42 5.6 29 -1.7 60 60 S 13 20 30.01 1016 10 16 0.00 0.00
9:56 pm 21:56 Clear 39 3.9 28 -2.2 65 65 S 13 20 30.02 1017 10 16 0.00 0.00
10:56 pm 22:56 Clear 42 5.6 28 -2.2 58 58 SSW 14 22 30.01 1016 10 16 0.00 0.00
11:56 pm 23:56 Clear 41 5 28 -2.2 60 60 SSW 15 24 29.97 1015 10 16 0.00 0.00

Powered by AerisWeather